Location: 81360 Arifat, France
(43.7204°N, 2.3408°E)
Time: 00:11:37
(UTC+02:00)

N. Korean satellite - Pass Details

Date: 04 October 2021
Orbit: 450 x 495 km, 97.3° (Epoch: 21 October)

Event Time Altitude Azimuth Distance (km) Brightness Sun altitude
Rises 06:01:18 0° 34° (NE) 2,560 11.0 -20.6°
Reaches altitude 10° 06:04:28 10° 65° (ENE) 1,682 10.4 -20.1°
Maximum altitude 06:06:02 12° 91° (E) 1,539 10.2 -19.8°
Drops below altitude 10° 06:07:37 10° 117° (ESE) 1,683 10.0 -19.5°
Sets 06:10:47 0° 148° (SSE) 2,563 10.5 -19.0°
